Orbital Elements at Epoch 2459000.5 (2020-May-31.0) TDB
Reference: JPL 23 (heliocentric ecliptic J2000)
Element | Value | Uncertainty (1-sigma) | Units |
e | .1417182962234226 | 3.4935e-08 | |
a | 2.333525213148651 | 9.5884e-09 | au |
q | 2.002821995746825 | 8.4173e-08 | au |
i | 7.098694499898627 | 3.883e-06 | deg |
node | 236.5657363326491 | 2.8221e-05 | deg |
peri | 177.3094555579447 | 3.1497e-05 | deg |
M | 243.2583664481687 | 1.4938e-05 | deg |
tp | 2459422.721591754657 (2021-Jul-27.22159175) | 5.5521e-05 | TDB |
period | 1302.01855505295 3.56 | 8.0249e-06 2.197e-08 | d yr |
n | .2764937554867332 | 1.7042e-09 | deg/d |
Q | 2.664228430550478 | 1.0947e-08 | au |
|
| | Orbit Determination Parameters
Additional Information
|